Theta_e
311 311 311 311 310 310 310 310 309 308 307 303 301 302 292 292 289 299 302 303 300 293 286 293 291 291 293 295 295 297 295 294 295 294 295 293 296 294 293 293 293 294 292 293 294 294 292 294 292 296 296 295 296 297 298 300 302 307 302 305 307 313 295 292 294 296 298 300 301 300 302 303 301 301 302 300 296 296 296 293 290 291 289 290 288 289 290
311 311 311 311 310 310 310 309 309 309 307 303 302 296 293 293 292 294 301 303 300 291 284 285 286 289 291 292 292 296 295 294 293 292 294 293 292 292 293 294 295 292 295 294 291 295 289 296 294 293 296 295 299 297 297 300 298 303 301 301 305 295 296 294 289 288 290 294 297 297 299 300 298 298 301 302 302 299 295 293 293 292 290 290 288 288 291
311 310 310 310 310 310 309 309 309 309 308 306 302 294 295 293 295 294 297 303 298 289 291 288 287 287 287 289 288 291 292 295 294 293 292 295 293 293 292 293 294 293 296 294 294 295 293 290 294 293 294 294 298 297 297 299 297 305 308 311 305 298 295 294 286 285 284 285 286 289 292 295 297 298 300 301 301 299 296 294 291 290 291 291 288 288 289
310 310 310 310 310 310 309 309 309 309 308 308 302 298 294 290 283 291 291 295 295 294 296 293 289 288 288 286 287 290 288 293 295 295 294 295 294 293 293 294 295 293 292 291 291 291 295 291 290 291 292 293 295 296 297 298 298 309 311 309 303 298 299 296 293 290 289 291 293 296 299 295 296 297 298 299 301 302 300 297 292 291 288 291 291 292 294
310 310 310 310 310 309 309 309 309 309 308 307 301 299 293 294 286 287 283 292 291 290 292 290 291 287 291 282 287 286 288 290 292 296 290 294 293 292 292 292 290 290 291 289 289 291 291 293 291 291 291 293 294 297 297 297 303 309 304 305 301 297 292 295 296 296 296 297 296 299 300 298 298 297 298 299 299 300 299 296 294 294 290 291 293 294 295
311 310 310 310 310 309 309 309 309 309 308 308 303 292 295 286 290 292 294 287 283 286 287 291 289 291 290 286 290 287 287 288 287 293 294 294 294 289 291 291 292 291 290 290 286 289 288 290 288 293 292 291 293 292 296 296 302 302 297 301 297 293 291 295 298 296 297 298 298 300 299 300 299 299 299 298 299 298 297 298 295 296 295 294 295 295 295
310 310 310 310 310 309 309 309 308 309 307 307 300 291 294 293 292 292 295 287 289 289 289 291 290 288 289 288 289 286 287 286 289 289 289 291 290 291 285 288 290 290 292 291 287 288 284 285 291 289 289 290 290 289 292 297 297 297 296 296 298 295 290 295 297 295 296 297 298 299 298 298 298 299 299 299 299 298 299 299 297 297 297 298 298 297 297
311 310 310 310 310 309 309 308 308 308 306 305 299 296 290 289 289 288 294 292 290 290 290 289 289 286 290 286 287 288 287 286 289 290 288 285 287 292 288 288 290 290 290 291 288 289 290 289 286 291 290 289 291 289 291 291 294 296 293 295 297 294 291 299 296 293 293 296 299 298 298 298 296 297 298 299 300 300 300 300 299 299 298 298 296 296 298
310 310 310 310 310 309 309 309 308 307 306 299 296 296 297 295 297 296 289 286 288 291 290 287 286 285 287 286 288 288 288 287 289 288 292 288 287 289 288 290 290 291 290 290 290 293 292 292 291 293 292 287 293 289 291 294 290 293 292 295 295 295 290 296 293 290 290 295 296 297 298 298 297 297 297 297 298 297 299 298 299 297 296 297 295 293 295
310 310 310 310 309 310 309 308 308 306 306 300 299 293 298 297 302 299 293 285 291 287 289 289 286 282 287 288 288 287 288 290 291 287 291 292 292 292 291 291 290 289 289 288 290 293 294 294 295 295 295 296 295 295 295 295 292 291 292 295 292 294 292 290 290 288 288 294 296 296 297 295 293 295 298 299 298 299 300 300 302 301 301 297 295 297 299
310 310 310 311 310 310 309 308 308 307 304 299 297 295 297 294 293 295 295 285 288 288 287 286 285 288 289 289 287 290 289 289 291 285 286 291 291 294 293 291 288 287 288 292 296 298 298 298 298 298 297 296 295 295 296 296 296 295 293 293 294 295 293 291 293 286 289 293 294 296 292 286 291 301 302 301 299 298 297 297 299 300 301 300 302 302 303
310 310 310 309 310 309 309 309 308 307 305 302 302 299 299 300 298 295 290 284 286 289 286 284 286 287 287 289 289 288 287 288 289 293 288 290 292 294 293 292 291 286 294 299 299 299 299 300 298 297 297 295 295 295 295 294 295 298 298 294 292 292 293 291 292 288 287 292 293 291 285 289 299 302 302 303 303 301 299 299 299 301 300 300 301 302 302
310 310 310 310 309 309 309 309 308 307 306 304 303 298 302 304 298 294 292 287 284 286 285 286 290 289 290 289 288 289 291 291 292 292 292 291 291 293 294 292 290 293 299 297 297 296 292 290 292 292 292 294 294 294 293 293 294 295 296 298 294 292 291 291 290 290 291 290 289 283 283 295 301 303 303 304 302 300 301 301 306 308 303 300 300 301 302
310 310 310 310 310 310 309 309 309 307 307 306 303 302 302 301 296 294 292 288 287 289 290 288 288 287 288 288 289 290 290 290 290 292 290 293 291 291 294 296 296 299 299 298 295 293 289 289 284 286 287 289 289 288 291 293 294 294 294 296 298 295 294 293 289 293 285 287 288 289 297 297 300 302 302 305 298 300 301 296 300 308 312 302 301 303 305
310 310 310 310 310 310 309 309 309 308 307 306 303 302 302 302 301 297 297 293 285 288 290 283 286 287 288 289 289 287 287 287 288 288 292 294 292 294 295 297 299 299 299 295 291 293 288 287 282 280 282 281 276 281 292 289 294 296 296 297 298 297 293 294 290 288 291 287 285 288 287 287 291 303 309 312 313 311 306 303 302 309 312 312 308 309 309
310 310 309 310 309 309 309 309 308 308 308 306 304 303 303 304 304 301 297 292 289 283 288 291 292 290 288 288 290 287 286 287 287 288 288 289 291 294 297 298 299 299 297 297 294 291 288 284 280 281 277 280 287 286 282 292 295 296 297 298 298 298 298 296 293 290 293 291 286 285 285 288 298 305 308 312 313 312 311 303 298 307 310 314 314 311 311
310 310 310 309 309 310 309 309 308 308 307 306 301 302 301 305 303 299 296 295 291 286 293 293 293 291 289 288 289 288 291 287 287 284 284 285 289 292 294 298 299 298 297 294 292 289 286 284 285 283 286 289 284 282 289 290 289 294 295 296 296 295 296 296 293 291 293 292 289 286 290 295 302 306 310 311 314 314 304 294 294 306 314 315 315 314 314
310 310 310 310 310 310 309 308 309 308 307 307 304 302 302 306 304 303 298 294 289 289 293 295 291 288 287 288 287 291 292 291 290 291 288 289 290 290 293 294 292 297 301 290 291 286 285 285 282 282 281 290 291 291 280 287 290 293 295 295 293 296 298 299 294 295 297 296 290 292 294 304 308 309 311 312 314 307 297 291 300 310 314 317 316 316 315
310 310 309 309 309 309 310 310 308 309 308 307 305 304 302 304 305 303 299 295 292 287 294 297 297 293 295 297 293 293 292 291 290 287 287 287 288 294 293 293 296 288 296 290 291 287 285 284 289 286 284 288 291 284 292 289 287 296 298 295 296 298 300 301 301 296 294 294 291 291 295 303 310 312 312 315 308 294 291 301 309 315 317 319 319 318 318
310 310 310 309 309 309 310 310 308 309 308 307 304 299 300 303 305 303 297 293 294 291 294 295 295 292 295 292 290 289 290 291 291 288 287 284 291 293 290 285 293 294 291 293 286 290 287 283 285 289 286 286 288 295 290 290 295 292 294 299 297 297 298 292 293 300 298 297 294 290 286 299 312 312 311 314 303 301 310 312 315 320 320 322 323 322 322
310 310 310 310 309 309 309 309 309 308 308 307 305 301 299 302 302 304 304 299 294 290 291 298 298 296 296 294 295 295 292 289 290 287 290 290 292 290 281 282 286 288 286 288 282 285 287 285 286 286 291 288 289 289 284 287 291 299 298 297 298 305 295 295 298 303 290 291 288 289 301 307 314 311 304 309 311 313 313 313 313 321 321 323 325 325 326
310 310 310 310 310 310 309 309 309 308 308 308 306 302 298 302 303 303 304 302 296 293 294 298 299 298 299 299 299 299 297 296 297 297 292 289 291 290 290 290 289 289 293 295 291 290 291 290 292 286 285 288 293 287 290 285 284 294 303 301 292 305 299 302 293 305 299 295 299 309 312 314 316 315 313 314 315 315 314 313 321 322 321 322 325 324 326
310 310 310 310 310 310 310 309 309 308 308 308 305 301 298 299 298 304 304 297 300 300 301 299 299 299 301 302 303 303 302 302 300 298 297 292 289 290 289 289 288 293 295 296 291 291 292 291 286 291 288 290 287 286 289 288 287 294 293 302 302 309 307 308 307 304 312 313 314 316 315 315 313 316 318 315 314 315 315 313 313 318 321 322 324 324 325
310 310 310 310 310 309 309 309 309 309 308 308 307 301 299 299 299 300 301 299 295 291 295 297 293 290 292 293 299 303 305 303 302 301 302 299 290 290 292 293 294 295 296 298 300 295 294 293 291 294 285 290 292 285 283 284 289 292 293 294 301 304 308 306 303 307 300 293 311 311 312 314 313 314 317 317 315 314 316 314 314 314 316 318 320 323 324
310 310 310 310 310 310 309 309 309 309 309 308 307 306 304 301 300 302 297 290 291 291 286 290 292 296 298 300 301 299 300 303 306 305 302 300 296 291 290 295 297 293 292 298 304 300 298 291 291 290 285 293 292 284 292 287 289 296 290 295 298 298 309 304 305 305 299 302 309 313 316 314 315 314 313 313 315 315 317 316 316 317 316 316 317 320 321
310 311 311 311 310 310 310 309 309 309 308 309 308 300 299 300 301 302 301 299 298 294 287 286 291 299 300 298 297 299 302 302 301 301 302 301 300 299 297 298 297 299 297 300 303 296 295 293 292 292 288 289 297 288 287 293 291 294 291 291 300 303 307 298 304 302 306 311 313 314 315 314 312 314 314 315 315 316 316 316 316 316 317 317 317 318 318
311 311 311 311 311 311 310 310 310 309 309 309 306 303 301 301 302 301 298 297 292 288 290 287 291 296 298 295 300 301 302 301 301 300 299 300 301 301 299 297 296 296 295 295 299 297 295 294 293 289 292 291 297 292 292 289 291 291 292 297 303 302 298 305 304 298 300 301 305 312 303 302 309 311 313 314 315 317 316 316 315 315 314 316 316 316 317
311 311 311 311 311 311 310 310 310 310 308 309 307 304 303 301 302 302 302 301 295 288 290 290 290 294 299 296 300 301 301 303 301 299 299 299 299 299 299 298 297 295 294 292 289 292 292 290 290 296 296 298 293 290 296 296 296 293 293 296 303 301 303 303 298 297 298 309 313 313 310 308 310 312 313 315 317 317 315 314 314 313 314 314 315 315 315
311 311 311 311 311 311 311 310 310 310 309 307 304 303 302 303 304 304 304 304 302 296 294 294 297 294 287 292 299 298 300 300 299 298 298 298 299 298 297 297 296 296 295 294 292 291 290 292 295 294 294 302 294 289 292 288 290 288 295 302 304 306 308 305 306 308 311 313 312 315 311 307 310 313 313 314 317 317 315 315 316 314 312 311 311 312 314
312 311 311 311 311 311 310 310 310 309 309 306 302 299 293 296 300 302 305 305 303 300 292 290 286 290 297 296 295 297 298 300 299 299 298 298 298 297 297 296 295 298 296 293 291 288 291 292 297 300 301 307 295 293 290 290 289 293 302 304 305 307 309 310 311 308 308 316 316 314 312 313 314 314 314 314 316 318 315 315 315 314 313 311 309 309 311
312 312 312 311 311 311 310 310 310 310 308 304 300 293 289 285 295 308 307 306 305 300 295 294 289 294 292 296 296 295 297 299 299 299 299 299 299 299 299 298 297 298 292 292 292 292 297 293 298 300 304 305 300 294 291 291 288 291 300 304 306 307 308 309 311 312 313 315 316 316 315 314 315 314 313 313 314 315 315 315 316 317 316 313 311 311 312
312 311 311 310 310 310 310 310 310 309 307 302 298 295 294 295 301 306 308 307 305 299 293 288 287 288 287 293 297 300 300 301 302 302 299 304 298 299 297 296 294 296 296 292 294 295 295 296 295 295 295 303 301 295 295 293 291 292 300 304 306 308 309 309 309 311 314 317 315 312 310 310 312 310 309 313 313 314 313 314 315 314 317 317 316 315 314
311 310 309 309 310 310 310 310 310 309 305 306 307 307 307 306 306 308 308 307 302 297 297 290 285 289 287 291 297 299 302 304 302 301 297 302 298 298 295 297 296 295 304 296 291 290 296 297 299 296 299 303 298 297 294 292 294 299 303 307 306 306 307 308 310 312 314 316 314 308 306 307 309 312 314 313 313 312 312 313 314 314 314 314 314 315 314
310 310 309 309 310 310 310 309 310 309 308 305 300 302 306 307 307 307 307 305 300 300 298 291 287 287 288 298 292 298 306 297 295 297 292 301 303 299 293 296 295 292 296 291 293 295 299 301 297 296 300 298 301 296 291 296 301 303 305 306 306 306 306 308 311 312 316 314 313 312 312 312 313 313 311 310 310 311 312 311 313 312 312 313 313 314 314
310 309 309 310 310 311 310 309 306 305 301 302 302 305 308 309 308 309 308 302 293 291 291 292 292 286 287 290 289 294 304 299 294 298 295 297 306 299 300 295 296 290 295 303 295 296 296 295 299 293 291 299 297 291 293 298 301 304 303 303 304 305 307 307 309 311 312 311 311 312 313 312 309 308 308 309 309 310 311 311 311 312 310 311 312 314 315
309 309 310 310 310 309 308 307 305 303 300 299 301 309 311 311 311 309 308 306 301 292 288 290 292 287 289 284 285 295 304 297 300 299 299 300 300 305 303 299 291 297 302 297 292 296 294 301 298 290 297 292 291 296 299 303 302 303 305 305 306 306 306 308 308 311 312 313 313 313 312 311 310 309 309 309 309 310 311 310 311 311 311 310 311 312 313
309 309 310 310 307 305 300 301 306 304 302 305 310 312 313 311 311 309 305 302 305 305 294 289 286 287 290 289 294 297 301 290 299 297 298 297 296 302 301 296 293 300 299 296 295 293 299 306 298 292 292 291 294 302 303 302 302 304 305 306 307 309 310 311 312 312 310 310 310 311 311 311 311 311 311 312 312 312 309 309 309 309 309 309 311 312 312
309 309 306 303 298 294 294 298 302 305 313 312 312 308 305 304 297 299 299 296 300 301 296 295 287 289 296 292 287 299 299 295 301 295 296 300 296 295 301 297 297 297 288 292 297 306 301 298 294 292 293 299 300 302 303 305 308 309 308 309 309 310 310 311 313 310 308 307 307 308 310 310 310 311 311 311 313 312 312 313 313 313 312 313 312 313 313
307 305 303 301 297 294 294 298 306 311 308 311 308 301 298 301 296 293 294 297 299 292 297 292 288 293 292 290 292 302 297 295 294 296 291 300 296 291 299 290 297 296 288 290 296 305 292 292 293 293 291 297 299 304 308 309 309 310 311 311 312 310 310 310 313 310 309 308 308 310 310 309 309 310 313 313 314 315 315 315 315 315 315 314 314 315 312
302 297 297 296 296 299 306 307 309 306 305 300 301 298 293 299 293 288 298 291 290 295 297 288 296 295 295 292 292 294 304 296 290 292 294 297 305 292 296 294 296 292 285 285 291 303 291 285 289 288 289 297 300 306 308 308 308 309 311 311 312 314 313 312 313 314 313 313 313 313 314 314 314 313 313 314 314 314 315 315 317 317 317 318 320 315 313
300 299 298 295 298 300 303 305 304 302 299 297 297 297 295 288 295 297 295 291 289 291 300 296 300 297 299 299 298 292 304 307 304 304 301 293 304 301 294 287 298 289 286 285 296 297 291 287 287 286 291 299 302 306 308 308 308 310 311 312 313 313 314 314 315 315 314 313 313 313 314 315 315 315 316 316 316 315 315 316 316 317 317 316 316 316 315
301 301 302 305 305 305 303 302 301 297 296 299 293 287 289 293 297 295 296 287 290 297 299 299 294 297 298 300 299 300 301 308 306 303 298 290 301 296 290 292 293 286 285 292 298 294 290 285 285 287 297 302 305 307 307 307 309 308 310 312 313 313 313 314 314 315 316 314 314 314 315 315 315 316 316 316 315 315 316 316 316 317 317 318 319 318 317
307 306 305 302 301 298 301 288 294 296 285 287 287 286 291 288 291 290 293 298 304 299 300 308 304 307 307 310 303 305 303 308 301 300 295 290 300 298 291 286 287 285 290 301 295 288 286 285 287 295 301 303 306 306 308 308 309 310 311 312 312 312 314 313 313 313 314 314 314 313 314 314 316 317 318 318 318 317 318 318 318 316 316 316 317 317 318
304 304 301 298 292 293 297 285 295 295 290 288 286 285 288 287 291 295 293 295 299 298 303 298 300 300 296 306 302 302 304 304 306 303 299 301 295 288 288 286 286 296 301 292 289 285 287 294 297 299 303 305 307 307 307 308 308 309 310 311 313 313 313 313 313 312 312 313 314 314 315 314 314 315 317 316 316 316 315 316 318 317 317 316 316 316 317
299 292 289 289 288 291 291 287 293 288 286 290 291 290 291 288 292 294 293 301 300 298 302 302 302 301 300 305 306 305 304 299 307 300 294 299 295 295 292 289 298 298 290 285 287 288 290 293 299 302 303 304 305 307 309 308 308 308 308 310 310 311 311 310 311 312 312 313 313 314 313 313 314 314 314 315 316 316 315 315 316 316 316 316 316 316 317
295 293 289 286 287 290 289 287 289 288 293 295 293 295 294 296 297 297 302 302 299 301 300 302 302 303 300 305 299 298 303 303 298 299 300 298 292 289 298 303 298 289 288 287 286 287 290 296 300 301 303 305 306 307 308 309 310 310 309 308 309 310 310 310 310 310 311 312 313 313 313 314 313 313 313 314 315 315 314 315 316 316 316 316 316 316 317
291 295 288 287 286 287 295 288 289 293 295 296 298 298 297 298 300 301 302 300 300 302 303 304 303 302 299 300 301 301 302 302 298 299 301 292 291 294 300 293 285 286 285 285 287 291 294 298 301 304 305 306 307 308 308 308 309 308 309 310 310 311 312 312 312 311 310 310 310 310 310 310 311 311 311 311 311 313 315 314 314 315 315 314 315 315 315
292 293 289 287 286 288 290 292 295 295 298 298 299 301 301 301 298 299 303 302 303 303 301 302 299 300 297 302 303 297 298 299 296 294 299 295 296 291 288 289 286 289 290 288 291 297 298 301 303 304 306 308 307 307 308 308 309 310 310 309 309 309 309 308 308 308 309 308 308 308 308 309 309 309 309 309 310 310 311 312 312 312 311 312 312 312 311
297 290 289 289 292 291 292 295 295 294 298 300 301 301 301 300 299 301 303 304 302 301 302 300 300 297 293 297 295 295 292 297 291 288 295 293 288 286 287 284 286 287 294 297 297 299 300 303 306 307 307 308 308 308 308 308 308 307 308 307 307 307 307 307 307 308 308 308 307 308 308 309 308 308 308 309 308 308 309 310 310 310 310 310 310 310 310
291 292 294 288 292 295 298 298 297 295 297 299 299 299 300 300 300 302 305 303 303 302 300 301 300 295 294 294 288 290 290 294 294 291 292 289 290 291 289 286 288 290 294 298 300 302 304 306 307 307 307 308 309 308 308 308 309 308 307 307 307 307 306 306 306 307 307 308 308 307 308 308 307 307 307 306 308 309 309 309 309 308 308 309 309 309 310
292 290 292 297 295 294 296 293 293 293 295 296 297 298 299 299 300 301 306 304 304 301 300 294 293 291 289 289 288 287 289 298 294 291 290 290 293 290 286 288 292 297 298 302 303 305 306 307 307 306 307 307 308 309 309 309 309 308 307 306 305 305 304 304 304 304 304 305 307 312 307 307 307 307 308 308 308 307 307 308 308 308 308 308 308 308 308
290 291 294 298 299 298 297 297 298 296 296 298 298 300 301 300 302 304 306 305 302 298 296 298 294 290 289 289 292 297 298 294 290 293 290 294 298 293 292 295 297 299 301 302 303 306 307 307 308 309 308 309 310 309 309 309 308 307 306 305 304 303 303 303 303 303 303 303 304 304 306 307 308 308 309 308 307 306 305 305 307 307 308 307 307 308 307
Wind_Speed
20 20 20 19 18 16 15 14 13 12 12 5 6 4 3 3 9 10 15 13 10 7 2 2 6 5 6 11 8 7 4 5 7 7 6 6 4 2 1 2 3 3 2 3 3 6 3 1 2 4 7 5 9 7 16 15 12 9 6 9 8 14 2 5 11 6 4 5 5 4 6 9 10 10 10 11 12 10 12 9 6 7 2 3 1 7 3
20 20 20 19 16 14 14 13 11 10 8 2 4 3 4 5 8 7 5 10 6 3 6 7 7 7 10 10 9 6 4 6 9 5 7 3 5 3 3 3 3 5 3 1 2 5 2 3 8 4 7 2 8 13 15 14 8 10 6 4 9 4 3 2 1 3 6 6 5 6 1 3 6 7 11 13 13 15 5 4 1 5 8 8 7 15 1
20 20 19 17 15 15 13 11 10 9 6 2 3 5 4 7 4 6 6 5 4 5 5 7 7 8 9 9 10 11 7 5 6 8 8 4 2 4 2 4 8 3 1 1 1 2 3 4 4 7 3 4 4 11 14 11 6 7 10 10 7 5 5 1 5 11 12 11 13 12 9 8 1 3 9 14 18 16 9 13 4 11 3 7 6 3 5
21 21 20 18 17 14 12 10 9 7 8 2 1 3 4 3 8 4 4 4 4 2 4 5 8 7 10 11 7 8 10 8 7 6 6 5 9 3 5 5 4 2 4 3 3 3 2 4 4 7 6 6 3 9 11 8 6 15 16 15 7 2 2 4 4 5 8 5 5 4 7 5 14 12 9 12 14 18 16 5 6 13 4 9 8 7 2
22 22 21 18 15 14 11 10 8 6 6 4 1 3 1 2 3 5 6 6 2 6 4 8 10 8 10 4 5 9 10 9 5 3 2 8 7 5 1 4 7 4 6 3 4 1 5 3 6 3 5 2 5 8 6 7 11 21 11 16 6 2 2 4 5 5 5 6 12 15 9 13 13 13 15 12 11 13 17 17 16 8 7 15 5 7 7
22 22 21 18 14 10 11 9 8 4 5 2 0 2 1 2 3 1 1 2 5 9 5 9 9 9 10 5 6 8 9 7 6 4 3 9 4 5 4 7 7 10 5 3 2 4 6 2 2 2 3 8 8 7 4 2 12 16 10 8 5 3 2 4 5 13 12 11 13 15 13 14 12 15 16 15 14 12 17 19 7 13 13 17 7 9 8
21 21 20 19 15 10 9 8 7 1 3 1 1 1 3 3 3 4 3 1 4 3 11 12 9 9 7 5 5 9 8 8 7 7 8 8 5 4 2 4 8 10 7 3 2 3 7 2 1 4 7 6 9 6 4 2 11 12 10 10 2 3 5 3 8 14 15 14 13 13 12 10 10 14 16 17 16 18 19 16 11 15 12 9 11 10 14
20 20 19 18 14 9 9 7 6 0 0 2 1 4 2 3 2 2 3 2 6 8 5 5 7 7 9 4 5 3 7 8 11 10 7 8 8 3 4 10 9 8 7 4 2 4 3 7 8 4 5 7 1 3 2 3 5 9 7 8 3 5 6 11 11 9 11 14 11 8 8 12 12 10 13 17 18 19 20 16 14 11 12 10 7 7 11
20 19 19 18 14 10 8 7 4 4 4 1 3 2 4 2 1 1 5 6 4 3 2 4 5 5 5 2 7 7 6 7 7 9 7 8 8 5 8 11 12 6 4 6 8 8 5 5 7 8 6 8 2 3 2 6 9 7 7 2 3 2 5 6 6 8 9 6 7 15 16 13 13 15 13 14 18 19 17 15 10 9 12 12 9 8 9
19 19 18 17 15 12 10 6 1 6 5 2 2 3 2 1 1 1 2 3 4 4 4 4 3 3 3 4 8 6 9 8 5 7 4 3 3 9 10 9 7 8 8 8 9 7 8 9 9 8 7 8 8 8 8 5 6 4 3 3 5 1 3 6 6 9 5 10 8 14 16 11 7 16 23 18 12 11 10 10 11 16 16 14 15 16 8
19 18 17 16 15 14 9 8 4 8 5 3 3 3 1 1 2 1 3 4 3 4 3 4 4 3 6 7 9 8 9 10 6 1 4 4 11 11 11 9 7 7 8 9 4 6 10 11 11 9 9 9 11 9 10 13 12 10 5 2 3 2 3 6 3 4 8 17 14 11 5 7 17 15 11 13 15 11 10 9 11 9 11 11 12 14 13
19 18 17 16 15 14 13 11 2 8 7 4 3 3 3 1 2 3 3 4 7 2 1 5 4 6 8 9 8 10 11 9 8 4 10 8 12 11 10 10 6 5 4 5 10 10 11 11 9 8 10 11 12 13 15 17 15 13 11 10 7 8 4 7 3 4 7 9 8 7 5 10 10 3 6 13 12 9 11 11 13 14 11 5 1 6 8
18 18 16 16 14 13 11 10 5 3 8 4 4 5 3 4 4 2 2 3 7 5 6 6 4 7 9 11 11 9 8 8 9 12 11 10 9 9 7 6 6 5 8 12 11 10 8 8 9 8 11 9 10 14 17 19 19 18 15 15 10 7 8 4 4 5 4 4 2 3 6 5 9 6 2 3 9 7 10 6 4 4 6 10 9 6 7
18 18 17 16 15 12 11 9 8 3 4 5 5 5 4 2 3 3 3 2 6 4 2 8 8 8 6 6 6 9 9 10 9 8 9 7 8 11 10 7 6 8 9 8 8 4 4 1 3 4 6 4 4 5 12 20 22 20 22 19 16 15 8 4 6 4 5 5 5 8 11 16 10 1 5 8 5 2 12 11 8 3 2 6 10 10 6
18 17 16 16 14 13 10 9 8 7 4 4 2 3 5 5 5 3 1 2 7 6 4 6 3 5 7 7 5 8 8 8 8 7 7 8 7 5 6 9 9 8 8 5 3 2 3 2 1 3 5 2 2 4 1 6 9 23 24 22 19 14 12 6 7 4 6 5 6 5 3 4 3 2 11 11 12 15 13 11 6 3 3 5 6 11 8
18 17 17 16 15 13 12 8 7 7 5 3 3 4 5 5 4 4 4 4 3 7 4 7 7 6 5 6 7 7 7 6 6 7 9 3 4 7 5 7 7 8 5 1 1 2 2 3 4 3 4 4 3 4 5 5 2 13 21 20 17 17 16 13 10 8 3 3 4 3 3 5 2 10 15 16 17 15 16 10 9 3 3 3 5 7 9
18 17 17 17 15 13 12 12 8 4 4 4 2 3 3 3 5 4 4 4 5 7 6 9 6 6 6 7 4 3 1 3 4 7 7 6 5 8 9 6 6 5 4 2 0 2 2 3 2 2 4 2 2 5 7 5 6 3 15 18 18 14 11 10 10 12 7 2 2 4 3 5 6 16 17 21 16 11 3 7 8 4 0 2 4 7 11
18 17 17 16 15 15 12 8 10 6 5 3 4 2 3 2 4 3 3 5 5 6 5 8 7 3 4 3 6 4 4 4 4 4 7 7 6 6 5 6 7 5 3 3 1 2 3 3 4 4 7 4 1 4 5 5 4 1 2 7 10 12 8 7 10 10 7 6 2 3 5 3 8 16 21 22 15 2 9 11 6 3 2 2 4 3 4
19 18 17 16 16 14 13 11 10 9 7 2 2 3 4 4 3 4 4 4 5 5 2 5 2 6 6 5 8 8 7 9 8 7 7 7 3 3 8 5 1 3 3 0 2 2 2 4 2 2 2 1 2 4 3 4 5 6 2 4 2 1 4 2 5 9 9 4 2 5 6 2 13 18 18 16 4 5 5 6 13 3 4 3 3 5 4
20 19 18 17 16 14 13 12 11 9 9 4 4 3 4 3 5 7 6 6 3 8 7 8 6 12 7 6 7 6 4 4 4 5 5 8 2 10 8 5 1 2 3 1 2 2 2 3 2 3 2 2 2 3 4 7 8 8 5 7 3 3 3 8 8 2 3 3 2 3 6 4 13 19 13 10 8 4 9 14 17 6 0 4 3 6 5
19 19 19 18 17 16 14 13 11 11 8 4 5 3 5 3 4 5 6 6 4 10 7 6 9 12 10 11 12 11 9 11 6 6 6 6 2 3 4 3 1 3 2 1 2 2 1 2 2 2 3 2 3 4 4 5 5 6 11 6 4 5 2 2 6 3 7 4 6 6 3 7 9 9 5 10 7 9 13 11 13 9 3 1 7 4 4
18 17 18 18 18 16 16 14 12 10 10 8 4 2 5 3 3 2 5 6 7 8 7 5 6 10 12 13 12 11 13 14 15 10 8 8 3 6 6 7 7 2 2 0 1 2 1 2 2 2 3 3 1 4 6 8 6 3 2 5 6 3 5 2 3 3 4 7 6 3 1 4 5 5 7 9 10 11 13 12 8 7 3 2 7 5 4
18 18 17 17 16 16 16 14 13 12 10 10 4 4 6 3 3 2 3 5 5 7 7 8 8 11 11 14 15 16 15 14 15 12 10 9 9 6 8 8 10 3 3 3 4 4 3 1 5 3 4 2 2 7 6 7 7 3 5 4 5 2 2 5 6 2 2 3 4 4 1 2 4 4 6 7 12 12 14 15 12 10 7 3 6 5 5
22 21 19 18 18 18 17 17 15 13 12 11 6 3 4 4 2 1 3 5 5 7 7 7 3 6 7 9 8 7 11 12 14 15 11 10 9 8 5 8 5 4 3 6 7 5 2 3 3 2 3 1 3 4 6 8 7 4 4 7 4 4 3 2 2 2 4 3 2 4 2 0 4 6 8 9 11 13 12 13 13 13 11 4 4 8 8
23 23 22 21 19 19 17 16 16 15 12 12 9 4 3 3 2 4 3 4 2 2 8 5 9 13 12 11 10 9 9 9 9 12 10 12 14 10 10 8 7 7 6 4 2 2 1 3 4 2 5 2 3 6 4 6 7 3 4 6 5 4 1 2 4 3 3 3 4 4 4 4 2 5 7 9 10 12 12 12 13 14 12 6 6 7 11
24 23 22 22 22 20 18 17 16 15 13 12 9 4 4 5 3 4 3 4 4 4 7 7 6 2 0 5 10 9 5 6 8 9 10 13 16 16 15 9 6 4 5 2 3 4 3 3 4 4 5 4 4 5 5 7 10 13 13 12 7 4 1 3 3 4 1 2 2 3 5 2 5 6 6 5 5 6 11 15 15 15 13 10 12 12 9
23 23 23 23 22 20 19 17 15 13 12 9 5 4 5 5 6 7 6 4 3 5 6 9 7 7 3 10 13 11 10 8 9 10 11 12 15 15 13 11 10 8 6 6 3 4 2 5 5 7 5 4 3 5 6 8 7 7 5 5 10 6 4 3 1 3 3 3 2 4 7 2 1 4 5 6 7 7 11 11 11 13 10 8 11 12 11
23 23 22 22 21 20 18 17 15 13 10 9 7 6 5 7 7 9 9 8 8 6 4 6 8 9 8 16 11 8 9 8 8 9 9 11 12 13 13 13 12 8 6 4 4 4 5 6 8 3 3 2 3 6 5 10 11 9 10 9 5 4 2 3 4 4 4 3 4 1 5 7 2 1 2 4 5 6 8 7 8 11 10 8 7 10 13
24 22 21 20 19 18 17 16 14 12 10 6 3 5 8 10 11 9 11 9 9 7 8 9 9 7 6 8 10 10 8 6 7 8 8 10 10 10 11 12 11 10 8 5 6 4 5 6 3 4 4 4 4 7 3 5 3 3 6 6 3 5 4 5 6 6 3 4 4 6 4 6 3 1 2 5 6 6 7 6 6 8 8 8 9 9 9
23 22 21 18 17 16 16 14 12 11 7 2 1 2 4 6 1 5 8 10 9 5 5 5 6 4 3 3 8 8 9 9 7 8 9 8 8 8 9 9 9 9 7 6 5 7 7 5 3 4 4 7 3 4 4 3 4 6 8 7 8 8 6 7 7 7 4 1 2 5 9 8 5 4 5 5 6 5 5 5 5 6 8 6 10 9 8
21 19 18 16 16 15 15 15 12 9 6 3 2 2 1 2 1 0 9 8 8 5 3 3 7 6 7 4 5 10 10 9 7 7 8 9 8 9 8 7 7 7 6 5 4 8 1 4 2 3 5 8 5 4 4 5 4 3 5 8 7 5 4 5 5 7 6 3 2 4 7 6 5 6 8 6 4 4 3 2 2 4 3 7 10 9 8
19 18 17 17 15 14 14 13 11 8 5 7 8 6 6 4 2 3 6 7 6 3 2 3 5 2 3 5 3 3 6 6 5 5 4 3 4 7 5 8 5 7 5 5 5 2 4 5 5 7 5 4 5 4 3 6 8 7 8 8 5 5 5 6 5 4 5 5 8 6 7 5 2 5 5 3 5 4 2 1 2 1 2 4 6 9 9
25 22 18 17 15 13 13 12 10 7 6 7 10 15 16 12 8 7 5 2 1 2 1 1 4 4 4 5 7 5 1 2 3 2 5 1 2 2 3 4 3 3 6 3 2 4 2 1 1 4 3 2 2 3 4 8 9 11 11 9 5 4 6 5 5 6 5 7 5 5 7 7 6 6 6 6 6 5 3 2 3 3 6 8 10 11 12
24 25 21 17 14 12 11 10 9 8 5 5 7 10 11 16 15 16 10 3 2 1 1 3 3 4 5 3 5 3 2 1 3 1 3 2 1 1 2 1 3 3 2 5 2 1 2 1 3 3 1 3 2 4 6 5 4 7 7 8 6 4 4 4 3 3 5 5 4 7 7 6 6 6 7 7 6 4 5 3 3 4 6 9 9 9 6
24 24 22 16 13 7 5 6 4 5 5 5 5 8 6 8 9 9 12 6 4 3 4 4 3 5 5 2 3 5 1 1 3 1 1 4 1 1 1 1 2 2 1 2 0 2 1 1 1 1 5 2 3 4 5 5 8 8 7 8 5 5 3 1 1 4 4 7 9 7 7 6 8 7 6 5 6 5 7 5 4 5 10 9 8 7 7
23 23 19 13 4 5 4 4 3 3 3 4 6 4 6 6 9 7 9 8 3 3 2 3 3 5 2 4 4 2 2 3 2 1 2 2 4 0 0 1 1 0 1 1 2 1 1 0 1 4 1 3 6 5 4 3 8 9 7 6 6 5 4 4 4 5 8 5 7 8 8 7 8 6 5 6 6 6 5 6 6 6 8 8 7 6 7
22 20 16 5 2 1 1 2 2 3 4 4 1 3 9 10 5 5 4 3 2 1 3 2 4 5 4 3 2 3 2 3 1 1 1 0 1 1 1 1 1 1 0 2 2 3 2 1 2 5 4 6 6 4 6 8 11 9 3 4 6 6 3 2 2 8 12 9 9 8 8 9 7 4 5 7 6 5 7 8 6 7 7 6 5 6 6
21 14 3 1 1 2 2 1 2 3 8 8 4 2 1 1 2 3 3 3 3 4 3 3 7 2 1 4 7 2 1 2 1 2 1 1 0 0 1 0 1 0 4 2 3 1 1 1 3 4 6 6 9 11 11 8 5 2 2 2 4 4 5 3 6 9 13 11 10 9 9 9 8 5 7 7 6 7 6 5 6 6 5 4 4 4 6
8 2 1 0 1 1 1 3 2 10 7 2 0 1 1 1 1 1 3 2 2 4 3 5 6 5 6 6 7 2 4 2 2 2 2 0 1 1 1 2 2 1 2 2 1 2 3 1 2 3 5 5 6 4 2 3 5 4 4 3 3 5 9 9 5 4 8 10 8 6 9 10 9 8 6 7 6 6 6 6 6 6 4 4 4 4 4
3 3 2 3 1 4 4 4 9 6 0 0 1 1 2 1 0 2 1 1 2 2 3 6 4 5 10 10 7 3 3 5 4 3 3 2 1 2 0 1 0 1 3 2 2 1 1 2 2 2 4 5 5 6 4 4 6 6 6 6 5 6 7 7 9 7 9 9 9 8 9 9 8 8 8 7 8 9 8 8 7 6 5 5 4 4 3
3 1 2 2 4 4 5 6 4 0 0 0 0 2 0 2 2 1 1 2 2 3 4 4 2 4 5 5 5 6 2 2 2 0 2 3 1 1 2 1 1 3 2 2 2 2 0 2 2 3 4 3 5 7 7 8 7 7 7 7 8 8 9 9 9 8 7 9 8 7 7 9 9 9 6 7 8 8 8 8 7 7 7 7 7 5 3
2 2 4 4 5 6 5 1 0 1 1 0 1 2 1 3 1 0 1 1 3 2 3 4 4 3 3 6 6 4 2 2 1 2 2 1 1 1 2 1 2 1 1 0 2 1 2 1 2 5 3 6 4 7 7 8 7 7 9 10 10 8 9 9 8 8 7 7 7 6 6 7 6 5 6 8 7 7 7 8 8 7 7 5 6 6 5
12 8 0 2 2 2 1 2 2 1 2 3 2 3 2 2 2 3 3 1 1 2 2 1 4 2 3 2 2 4 1 2 3 2 2 1 1 2 1 1 1 2 2 2 1 2 1 1 1 9 8 9 6 8 9 8 9 10 9 9 9 9 9 9 9 9 9 10 11 9 7 6 6 6 6 7 8 8 7 7 7 7 6 7 7 7 6
1 1 0 1 1 2 1 2 2 1 1 0 1 3 3 4 4 2 4 5 4 3 2 6 8 7 5 1 1 1 3 2 1 1 2 2 2 1 0 2 1 3 1 2 3 3 4 5 11 10 9 8 8 8 8 8 7 8 10 10 8 7 8 10 9 10 11 9 8 7 8 10 11 9 8 10 9 8 8 8 7 9 8 9 9 8 6
2 3 3 3 2 3 2 2 1 3 3 4 2 3 3 8 9 7 5 4 2 8 10 6 6 5 7 3 0 1 1 1 1 0 2 0 2 2 2 3 2 1 2 2 3 3 2 8 8 10 12 12 11 10 8 8 8 9 9 10 10 9 11 10 9 8 8 7 7 7 9 8 6 5 8 9 8 7 7 9 7 8 9 9 9 8 7
3 1 2 3 5 3 2 0 2 4 2 1 3 6 9 10 8 7 6 2 5 8 8 9 8 6 5 2 1 2 1 0 1 1 0 0 2 4 2 0 1 3 3 2 3 8 9 9 12 12 12 11 10 10 9 7 6 7 9 11 10 10 7 7 8 8 7 7 9 9 7 6 9 9 9 8 7 5 7 7 7 8 8 9 9 8 7
1 1 2 1 1 2 0 2 2 1 4 7 8 8 7 9 8 8 6 3 6 7 7 6 5 4 2 4 3 2 1 1 2 2 1 3 2 1 1 3 5 4 5 8 8 8 9 10 11 11 11 9 9 9 9 8 6 6 6 5 4 4 3 4 4 5 7 8 9 8 6 6 6 8 10 10 10 9 8 9 9 9 9 8 7 7 8
1 1 1 3 2 1 8 4 3 4 3 4 7 7 6 5 4 10 10 4 5 4 4 5 4 4 3 2 2 3 3 3 2 3 2 2 0 2 2 3 3 3 3 3 10 9 13 12 11 11 10 9 8 8 6 7 8 10 10 10 11 11 12 13 13 13 13 13 12 12 11 11 11 10 10 10 10 9 9 9 9 8 9 9 10 9 9
2 1 2 1 1 1 3 7 6 9 11 10 9 9 11 11 10 10 10 7 7 7 5 2 3 1 3 3 3 4 6 5 5 3 3 3 3 4 4 4 4 7 9 7 10 10 9 8 8 9 10 10 9 8 9 9 9 10 10 11 11 12 13 14 14 14 14 12 12 12 11 10 10 11 11 12 11 9 9 10 11 10 9 10 10 10 10
3 3 3 3 4 4 6 4 6 10 10 11 12 12 11 11 12 11 9 9 9 6 5 1 1 4 1 2 2 3 2 4 4 2 4 7 6 4 3 5 5 5 6 7 8 9 9 8 8 10 10 10 10 10 8 10 10 11 10 11 11 12 13 14 14 14 13 12 13 13 12 12 11 11 11 11 10 10 11 11 10 10 10 9 10 10 10
1 3 0 2 4 4 5 9 9 8 11 11 10 10 10 11 11 11 11 7 8 5 7 6 3 3 3 3 2 4 3 2 2 6 4 5 3 4 4 9 9 8 8 8 8 9 8 8 7 7 8 9 9 7 7 11 11 10 10 11 12 12 13 14 14 14 13 13 13 14 13 11 9 10 9 10 12 13 13 11 10 9 10 10 9 10 11
3 4 5 6 4 5 5 3 3 4 4 6 8 8 8 12 11 10 10 7 10 14 10 6 3 3 3 6 4 1 2 2 3 4 8 6 4 5 6 7 9 7 7 7 8 7 7 6 6 7 6 6 7 7 10 11 11 12 12 12 13 13 13 12 12 12 12 12 12 11 10 11 12 12 13 14 13 12 11 8 7 8 9 8 8 9 9
Wind_Direction
327 327 328 327 327 326 327 334 336 338 342 339 338 310 317 288 267 296 294 293 335 349 18 4 20 354 342 339 339 328 339 319 354 356 17 350 342 325 311 333 13 45 55 355 328 10 274 291 269 14 14 64 62 5 4 347 2 360 6 328 13 342 219 243 248 284 290 274 256 249 225 202 212 213 198 187 201 194 216 213 183 188 235 209 325 244 279
327 326 326 327 325 323 325 329 333 331 351 314 312 306 293 287 292 319 272 300 313 23 17 8 359 345 336 349 322 327 317 343 351 347 346 357 335 349 316 306 47 319 28 357 5 335 343 67 45 28 3 333 44 28 1 358 5 11 360 328 348 8 306 21 299 261 255 265 315 283 242 184 211 206 208 207 204 205 201 107 121 218 197 173 152 243 259
325 325 324 322 324 320 321 325 326 329 336 337 331 320 304 292 246 224 284 311 344 32 359 21 345 350 337 337 329 351 354 349 334 328 313 304 287 322 332 336 327 307 356 5 3 1 7 312 17 359 318 310 16 18 358 338 348 343 340 351 315 202 255 299 192 215 218 212 214 218 217 224 314 228 216 211 205 203 178 220 168 215 260 161 202 237 250
325 325 322 321 320 317 318 321 320 326 323 329 286 294 309 342 319 313 328 327 333 58 5 28 360 342 352 347 317 347 327 336 332 351 313 44 358 345 290 307 292 336 28 22 352 333 82 44 324 337 321 352 16 5 338 324 316 350 350 356 338 252 270 226 225 214 255 271 296 239 160 166 214 218 213 222 218 206 203 191 190 216 201 210 215 156 230
327 325 324 320 318 320 318 318 315 323 316 313 276 285 238 294 271 309 344 329 47 345 6 10 3 349 339 326 304 329 315 311 322 22 303 11 354 321 271 2 25 357 19 356 325 346 350 309 303 271 333 340 302 329 314 315 2 357 351 358 333 9 341 275 284 254 251 290 279 286 225 211 208 209 224 223 216 212 211 205 222 134 138 242 186 195 196
329 329 327 327 320 316 315 314 315 316 321 315 272 303 256 300 268 304 13 314 303 346 338 1 334 329 333 290 308 300 310 331 337 355 51 341 3 13 327 27 15 360 350 345 9 323 328 276 256 353 353 318 330 339 350 291 6 3 349 358 15 322 268 288 325 311 310 299 287 283 271 240 217 203 211 217 217 211 214 221 196 165 204 227 201 193 195
332 333 335 335 328 323 315 320 323 343 321 171 153 261 259 232 289 293 316 49 314 303 290 315 314 324 319 295 303 323 339 335 355 351 329 346 337 10 302 345 350 343 341 46 282 10 345 338 2 5 317 340 338 328 346 7 18 1 344 348 343 307 252 263 331 309 308 307 300 293 263 254 247 216 208 209 209 218 219 217 201 200 218 214 216 190 207
336 337 339 340 339 336 316 315 316 116 157 118 248 217 268 287 327 304 9 256 284 283 298 300 316 314 312 324 299 311 319 337 346 345 344 326 309 347 10 319 326 322 322 308 314 271 238 282 303 314 332 319 326 291 240 294 6 0 341 323 345 34 292 327 322 312 306 303 304 306 279 240 242 248 220 208 210 216 219 217 206 206 233 227 224 192 231
339 341 341 344 344 343 323 305 307 142 137 211 195 253 191 259 164 275 306 300 254 261 268 295 306 302 305 301 313 346 311 333 333 300 274 263 283 330 329 315 311 302 302 309 286 283 290 275 277 295 289 275 303 326 284 10 320 345 325 316 312 2 269 315 312 323 309 309 350 330 327 307 248 236 241 222 208 214 216 215 197 179 206 221 229 229 242
340 342 345 345 343 338 343 339 184 155 181 201 219 248 221 228 268 180 242 279 299 317 264 268 290 288 266 328 325 323 308 312 318 321 290 288 303 322 307 309 305 307 311 293 278 295 306 298 290 283 268 261 266 251 268 276 265 261 257 275 281 219 312 317 320 312 261 283 316 320 314 315 275 234 224 220 220 213 214 221 206 201 189 198 216 228 212
338 342 344 345 343 343 353 336 287 180 163 205 214 231 273 201 277 290 218 273 268 219 277 258 223 274 322 318 304 304 301 310 309 267 287 325 310 310 308 311 317 281 279 277 290 307 292 289 283 275 267 252 245 244 258 261 253 240 233 251 250 217 226 263 309 285 290 295 314 309 302 247 233 239 212 207 216 208 206 216 218 220 181 215 211 213 218
338 339 340 341 343 346 352 349 31 190 186 216 192 241 226 178 269 232 265 273 283 330 271 268 266 286 289 294 302 296 296 294 295 267 269 273 277 288 295 296 285 286 246 299 318 312 306 289 271 266 263 255 247 242 241 245 246 235 221 222 243 257 241 265 255 260 280 295 317 314 239 243 260 338 186 203 212 194 199 208 210 217 211 216 195 229 236
338 338 338 340 343 349 344 346 350 220 210 219 211 253 248 226 237 237 258 266 276 299 291 280 258 271 282 287 285 283 298 307 299 292 281 282 292 293 288 284 278 280 325 312 305 317 315 289 291 283 280 274 255 242 236 238 238 230 226 217 217 238 244 249 244 234 266 288 216 240 235 244 307 308 332 262 182 183 179 218 266 269 227 202 199 203 219
339 341 342 342 345 349 349 347 337 304 218 199 227 233 244 188 222 242 231 258 273 256 278 294 282 265 264 272 300 305 306 298 292 284 287 290 294 289 287 286 300 309 300 304 302 285 298 19 326 338 305 296 263 250 224 224 222 219 217 215 210 218 237 203 278 215 239 237 258 251 290 307 294 272 28 7 331 243 180 204 247 236 202 179 196 205 202
340 341 342 342 347 348 354 349 350 333 273 209 218 247 249 238 226 235 234 234 273 281 260 269 273 296 308 300 308 305 302 295 308 295 282 288 274 252 283 302 303 304 304 304 332 295 212 244 345 356 308 352 328 282 208 209 213 213 206 203 200 204 208 193 207 252 202 253 283 294 299 245 275 306 312 336 326 322 286 185 238 272 237 187 192 178 181
338 338 338 339 344 344 347 355 359 349 317 212 216 245 250 252 249 238 229 235 281 285 228 230 256 294 299 297 300 283 286 305 295 302 306 278 259 285 291 295 297 300 299 222 214 255 229 197 219 199 234 230 269 331 300 270 232 193 208 206 203 199 202 209 197 245 224 216 219 226 245 251 193 329 333 325 325 314 305 235 222 261 212 192 156 172 168
334 335 334 336 338 340 348 345 347 336 312 190 219 226 257 192 228 231 232 225 215 243 323 319 301 285 302 295 310 277 220 264 335 321 308 310 316 315 306 307 298 298 324 308 246 252 271 240 245 238 264 334 358 220 269 307 283 236 191 207 218 210 202 199 214 232 225 175 209 264 231 273 333 342 330 322 316 314 73 212 232 255 250 155 142 180 163
328 329 330 332 333 333 343 343 325 327 330 210 197 244 265 200 210 236 243 243 259 275 238 248 262 277 238 233 269 269 278 274 276 256 260 292 313 308 321 335 326 332 314 328 351 358 266 244 233 217 247 217 279 322 257 263 273 270 214 186 190 201 193 176 205 207 196 175 242 299 300 287 347 339 330 314 299 195 159 204 240 225 193 123 144 184 158
325 325 326 326 328 330 332 334 333 325 326 280 210 255 249 233 217 221 246 251 236 250 229 306 322 269 256 273 262 272 261 274 279 283 287 306 267 291 345 312 357 307 358 97 287 261 250 240 220 261 257 260 169 219 254 235 253 283 240 252 240 279 132 92 158 199 191 138 154 230 250 297 355 335 320 306 282 162 187 282 302 251 153 137 159 131 102
322 323 324 325 325 326 325 322 327 325 324 287 175 245 244 223 194 199 221 258 240 263 260 251 249 260 255 240 259 257 275 264 234 251 259 265 341 356 338 342 330 218 286 268 294 250 301 306 328 305 258 274 259 312 287 251 258 258 303 286 232 204 195 181 190 157 46 65 69 312 287 258 10 336 323 24 37 290 296 306 308 311 227 128 102 110 128
317 318 319 319 320 319 317 317 317 319 316 296 162 254 284 229 218 204 215 235 267 288 278 225 232 245 253 251 244 245 241 248 235 231 234 250 320 8 275 239 314 18 301 40 295 331 343 297 344 275 275 294 308 359 277 299 282 233 221 252 276 156 104 209 195 178 147 148 173 203 229 305 342 353 329 336 331 310 306 302 290 297 298 144 103 57 93
306 308 310 312 313 313 313 312 313 312 309 305 213 208 253 239 216 184 212 216 243 244 268 289 283 268 258 254 253 243 243 247 248 238 260 273 218 217 265 294 281 253 265 21 284 302 204 260 295 255 287 288 292 245 291 309 279 267 195 207 242 165 152 219 189 205 156 181 181 212 37 330 325 327 297 302 322 334 324 325 312 285 304 308 97 98 76
295 296 297 297 300 303 306 306 305 305 301 299 285 188 250 273 260 234 187 255 236 253 261 268 258 262 265 258 247 244 240 238 249 250 234 240 266 240 242 253 262 219 237 186 228 255 278 189 248 277 292 236 310 317 288 225 264 274 251 251 267 16 101 259 257 250 93 38 78 119 105 286 326 315 301 337 348 341 349 353 336 311 317 331 105 103 97
297 292 292 293 297 302 297 297 299 297 298 294 280 220 252 222 227 216 241 247 262 286 275 236 261 262 225 257 261 217 224 232 226 233 219 196 233 259 233 229 231 260 235 212 186 214 208 202 255 244 245 261 47 259 287 295 255 243 266 253 248 268 281 328 279 246 120 221 191 132 172 50 7 331 335 6 18 350 348 353 342 320 316 351 53 95 86
295 294 293 294 293 294 297 291 288 291 293 293 291 263 251 251 205 200 239 282 271 299 293 297 243 248 257 261 276 267 237 231 223 223 207 192 205 218 239 223 175 210 234 227 142 201 150 243 254 221 264 229 118 266 178 257 282 31 293 262 249 240 6 337 260 250 148 171 155 155 132 113 24 11 360 359 5 346 352 359 345 326 312 358 18 57 70
298 296 294 291 290 289 288 289 286 282 284 287 290 250 235 243 180 180 204 242 270 268 278 281 285 107 284 291 265 247 252 247 247 239 212 201 206 216 238 262 259 234 261 249 155 209 211 237 239 253 256 273 143 252 246 221 275 291 270 265 265 304 202 200 231 234 114 81 126 134 130 82 30 8 14 353 5 331 5 8 346 320 330 6 39 43 53
302 300 298 295 290 289 286 283 282 278 276 269 264 242 239 244 193 195 208 205 257 270 233 255 271 284 273 276 276 287 270 248 244 238 241 226 217 219 227 241 250 252 244 261 214 232 230 255 248 253 203 230 205 247 266 286 253 258 261 259 257 247 235 199 205 230 151 161 210 155 130 165 295 353 352 1 351 2 31 6 334 318 328 350 53 53 51
306 304 302 300 297 292 288 283 279 275 268 268 272 256 241 247 230 205 201 191 195 233 292 281 292 292 307 276 271 258 262 250 235 235 234 234 222 219 221 228 234 246 240 222 262 221 225 236 240 224 228 253 304 260 223 251 262 254 252 250 242 257 251 139 194 178 201 172 144 162 118 111 181 212 17 37 8 36 52 28 325 313 327 347 38 64 62
311 310 308 306 303 298 291 285 278 273 268 264 278 280 270 244 243 207 195 192 195 239 252 268 278 278 275 293 304 289 269 237 242 237 238 241 232 218 218 222 222 226 232 215 226 223 224 232 216 220 228 146 192 273 273 250 254 258 263 282 264 239 245 275 266 265 272 181 178 158 142 140 157 151 77 63 55 42 47 40 336 326 330 352 28 32 56
312 307 304 299 295 293 290 285 277 267 261 210 103 316 314 310 221 182 184 178 184 209 249 286 293 278 299 286 282 282 295 293 274 261 253 246 242 228 215 213 225 221 210 212 178 243 228 241 210 211 196 128 208 264 257 256 265 268 262 264 279 273 249 252 251 231 235 262 152 140 125 121 131 134 99 64 39 40 34 19 356 341 341 1 42 34 21
301 293 291 292 287 282 282 279 271 255 223 173 136 235 307 300 292 187 164 175 174 199 253 243 257 309 298 233 247 273 277 292 296 281 255 240 235 231 225 204 225 196 209 222 218 241 172 243 220 208 184 187 186 242 257 275 281 261 253 254 269 268 277 270 248 259 277 271 141 122 113 117 152 122 77 63 59 58 31 335 6 12 13 26 38 41 30
305 305 302 297 287 276 271 272 267 250 209 204 204 187 184 184 188 114 136 148 146 203 239 306 306 252 271 281 255 258 280 282 284 280 267 200 228 206 213 186 214 185 198 209 228 248 231 230 241 258 256 193 208 268 258 264 274 259 265 263 257 253 243 259 267 253 239 221 148 116 94 78 84 126 138 131 104 103 110 302 297 306 17 72 71 58 47
313 314 309 300 291 276 263 252 247 229 214 229 255 271 272 250 166 127 132 113 22 226 135 242 246 302 267 278 302 296 153 360 312 325 291 240 247 180 210 197 195 208 203 208 228 218 232 198 226 265 241 96 222 250 250 256 259 270 282 292 276 284 277 278 266 254 235 190 185 165 163 147 132 110 114 100 90 85 72 23 327 343 43 37 38 45 41
313 313 314 306 294 275 249 235 226 219 229 238 250 240 243 245 242 232 220 187 254 189 199 229 259 243 263 317 289 263 133 302 262 265 294 287 192 146 236 237 188 175 176 182 261 9 308 251 228 247 347 234 211 279 272 263 262 291 292 284 288 283 281 287 296 217 155 119 84 104 112 116 112 103 85 76 66 65 78 57 27 43 45 49 36 24 4
313 310 310 313 306 290 257 215 194 192 222 232 250 258 244 217 192 199 190 150 157 226 207 233 249 279 291 257 247 275 328 314 300 245 208 281 321 241 309 86 334 188 279 84 327 207 257 232 128 320 259 245 240 251 251 292 318 325 310 304 301 314 324 292 61 251 129 118 114 111 112 106 91 78 87 82 65 54 63 58 42 50 55 40 29 17 16
311 309 309 324 41 99 92 135 180 187 217 233 227 259 243 231 197 164 163 179 187 166 200 238 236 249 275 290 304 304 17 286 253 287 230 279 336 294 316 86 46 291 154 172 237 168 217 138 54 252 241 255 244 233 260 313 316 308 280 288 304 306 289 282 275 167 113 105 106 108 99 91 90 99 96 92 79 56 59 62 47 57 70 59 33 17 24
312 309 314 309 164 72 84 179 182 194 221 213 231 115 113 106 84 112 136 193 239 241 224 210 244 229 204 278 307 278 350 295 312 298 302 305 246 309 357 35 262 309 334 254 231 243 248 101 233 272 251 244 258 260 286 297 292 279 273 298 302 311 310 115 138 127 106 96 87 86 89 90 83 75 82 78 73 70 62 50 43 46 48 44 37 39 28
311 314 328 1 32 20 317 282 201 243 266 261 214 192 195 160 158 171 148 204 202 183 211 212 250 253 224 233 243 246 288 248 46 294 296 234 282 300 302 145 233 307 256 291 249 111 151 191 239 259 271 248 256 264 268 260 233 203 232 274 343 357 23 36 157 128 114 103 92 90 86 82 81 68 81 73 67 66 58 48 46 44 41 42 45 41 41
316 311 31 67 77 274 220 250 319 335 315 205 205 304 250 163 184 222 200 191 184 208 172 209 240 200 202 227 253 245 225 289 342 275 271 104 304 290 209 222 220 185 288 285 292 81 260 286 281 296 282 295 295 295 99 73 66 70 66 44 29 23 45 29 32 99 116 121 127 122 116 110 101 90 79 83 68 62 60 53 43 34 33 31 28 32 46
43 11 345 320 205 246 297 350 349 327 277 81 153 109 281 221 290 282 195 210 249 208 171 237 217 210 196 209 230 288 154 185 203 221 221 205 136 206 29 334 64 119 234 216 245 53 270 247 274 275 275 280 311 3 42 56 59 39 49 52 39 36 44 21 29 33 83 89 90 91 91 94 97 99 95 94 89 80 71 67 60 54 45 40 48 49 33
16 338 2 288 280 316 301 314 326 72 37 324 272 196 359 315 220 223 305 273 244 246 182 223 223 240 209 215 194 240 206 206 273 297 321 285 71 146 170 180 185 231 245 233 6 55 360 267 248 238 232 282 329 11 44 58 49 38 24 18 33 40 47 48 34 24 44 61 54 52 59 71 77 80 79 81 83 83 82 78 71 65 61 58 54 44 26
271 263 261 295 291 286 299 286 167 352 327 204 54 297 206 232 241 355 170 199 290 286 237 185 238 247 252 183 197 188 225 195 252 250 117 279 144 219 195 223 42 170 306 247 200 247 284 319 294 287 293 107 60 26 41 54 52 46 30 28 34 42 55 58 61 44 27 53 59 58 78 97 96 91 93 86 82 81 77 78 76 71 70 68 68 64 60
280 273 229 308 297 295 228 7 310 82 44 347 7 339 1 357 336 337 319 264 275 279 275 214 248 255 259 126 224 186 218 135 195 166 93 243 60 15 24 335 280 14 299 233 355 316 315 216 110 66 50 56 41 48 42 47 60 67 68 57 50 41 52 59 59 64 57 58 61 60 45 49 65 73 78 84 85 74 69 77 86 83 74 65 59 55 51
169 159 260 292 17 296 45 342 283 360 345 109 43 334 335 334 331 4 313 312 311 276 286 338 319 346 327 223 252 157 153 193 206 173 171 178 135 200 81 31 261 232 220 1 339 4 313 345 30 48 54 49 44 43 42 41 44 55 54 53 53 51 66 80 69 66 67 63 61 56 65 63 57 44 53 53 45 68 72 67 67 80 76 68 59 50 43
41 358 20 357 15 292 40 338 337 90 358 330 344 303 327 328 318 324 310 301 292 287 309 302 298 330 305 303 167 235 100 29 180 226 358 197 8 345 49 351 333 38 28 6 358 311 354 50 34 38 49 56 55 60 55 45 44 55 60 54 44 48 52 54 58 64 71 68 65 55 59 55 81 79 60 74 71 61 70 71 59 71 77 80 76 66 48
53 56 29 38 340 333 77 299 328 353 335 340 334 309 316 315 317 306 292 261 288 302 311 312 318 309 298 285 69 332 329 347 44 36 14 359 66 18 359 241 38 36 24 38 27 36 36 37 41 44 44 45 46 47 48 45 34 42 48 53 53 57 56 69 74 70 61 55 56 57 61 56 58 60 68 65 72 65 59 67 66 71 75 71 63 60 51
20 4 89 123 83 291 44 4 341 315 295 307 306 305 297 294 288 265 258 261 273 273 283 279 255 238 304 332 1 1 1 324 42 341 18 41 15 292 11 38 15 1 16 20 29 40 50 43 38 36 36 35 35 34 31 25 9 28 42 51 49 47 66 87 99 79 79 84 87 90 85 75 74 63 61 57 48 46 51 55 56 58 66 70 64 57 51
6 263 85 40 343 322 7 340 285 291 264 257 293 309 294 276 328 352 343 314 260 292 316 337 353 347 11 308 52 5 347 347 36 2 14 317 263 39 9 32 33 22 45 25 34 30 35 25 30 28 24 30 39 38 18 7 9 22 24 31 39 49 53 53 53 50 50 51 51 49 48 49 52 56 59 61 57 49 54 59 59 58 61 60 58 55 54
143 68 41 352 305 358 305 302 352 16 353 350 345 355 358 5 4 354 341 337 350 345 324 359 333 48 3 328 27 355 31 346 37 348 343 3 36 20 12 27 352 41 34 19 33 33 27 34 31 30 28 27 23 28 37 37 43 45 50 55 55 55 55 55 53 52 51 51 50 51 50 53 57 60 62 61 63 57 59 64 64 62 64 67 65 61 57
46 3 27 30 353 358 311 277 15 16 355 357 2 3 353 5 3 357 349 348 340 327 336 3 11 76 312 12 10 5 31 355 41 339 21 31 22 4 13 34 15 21 22 29 43 38 32 27 20 28 24 29 35 29 40 59 59 61 58 59 56 56 55 56 54 50 49 51 53 54 54 55 56 59 64 71 71 67 58 54 59 63 59 60 67 66 63
14 106 204 219 82 331 329 20 360 358 0 1 357 357 353 4 0 352 344 340 315 357 34 28 335 23 357 8 8 29 4 340 29 20 26 32 18 26 5 24 16 21 31 28 30 31 32 28 29 31 24 22 19 8 14 49 48 47 51 55 56 58 56 54 54 53 48 45 47 50 50 52 56 62 62 63 63 62 58 50 48 58 62 60 61 67 65
35 26 360 329 4 16 359 325 4 16 346 342 0 352 360 13 354 345 331 348 20 39 18 339 9 359 19 32 9 357 305 27 31 13 44 25 345 31 27 32 10 10 14 22 26 23 19 17 17 19 12 11 12 25 47 53 54 53 51 51 52 53 53 51 51 51 50 45 43 46 46 45 49 50 51 50 48 51 51 48 40 51 59 60 59 62 65